| time (UTC) | temp F | wind direction | speed MPH | gust MPH | rain 1hr in | rain 24hr in | rain mn in | humidity % | barometer mb |
| 20260508175005 | 56 | 235 | 3.0 | 8.0 | 0.01 | 0.05 | 0.05 | 77 | 1010.6 |
| 20260508173504 | 56 | 230 | 3.0 | 7.0 | 0.01 | 0.05 | 0.05 | 74 | 1010.7 |
| 20260508173004 | 56 | 234 | 3.0 | 9.0 | 0.00 | 0.04 | 0.04 | 74 | 1010.7 |
| 20260508172004 | 57 | 238 | 3.0 | 7.0 | 0.00 | 0.04 | 0.04 | 72 | 1010.6 |
| 20260508171504 | 57 | 244 | 2.0 | 5.0 | 0.00 | 0.04 | 0.04 | 71 | 1010.5 |
| 20260508171005 | 58 | 241 | 3.0 | 10.0 | 0.00 | 0.04 | 0.04 | 70 | 1010.7 |
| 20260508170504 | 58 | 240 | 4.0 | 10.0 | 0.00 | 0.04 | 0.04 | 69 | 1010.7 |
| 20260508170005 | 58 | 239 | 3.0 | 7.0 | 0.00 | 0.04 | 0.04 | 68 | 1010.6 |
| 20260508165504 | 59 | 229 | 4.0 | 10.0 | 0.00 | 0.04 | 0.04 | 65 | 1010.6 |
| 20260508165004 | 59 | 227 | 5.0 | 12.0 | 0.00 | 0.04 | 0.04 | 63 | 1010.5 |
| 20260508164005 | 60 | 222 | 3.0 | 7.0 | 0.00 | 0.04 | 0.04 | 61 | 1010.6 |
| 20260508163504 | 61 | 231 | 2.0 | 5.0 | 0.00 | 0.04 | 0.04 | 62 | 1010.5 |
| 20260508163005 | 61 | 234 | 2.0 | 4.0 | 0.00 | 0.04 | 0.04 | 62 | 1010.5 |
| 20260508162004 | 61 | 285 | 4.0 | 12.0 | 0.00 | 0.04 | 0.04 | 62 | 1010.5 |
| 20260508161504 | 61 | 296 | 4.0 | 13.0 | 0.00 | 0.04 | 0.04 | 62 | 1010.6 |
| 20260508160004 | 60 | 275 | 3.0 | 10.0 | 0.00 | 0.04 | 0.04 | 64 | 1010.8 |
| 20260508155504 | 60 | 248 | 4.0 | 10.0 | 0.00 | 0.04 | 0.04 | 63 | 1010.8 |
| 20260508155004 | 60 | 240 | 3.0 | 10.0 | 0.00 | 0.04 | 0.04 | 63 | 1010.7 |
| 20260508154504 | 60 | 266 | 3.0 | 10.0 | 0.00 | 0.04 | 0.04 | 65 | 1010.7 |
| 20260508154005 | 59 | 267 | 4.0 | 10.0 | 0.00 | 0.04 | 0.04 | 65 | 1010.7 |
| 20260508153504 | 59 | 254 | 4.0 | 8.0 | 0.00 | 0.04 | 0.04 | 65 | 1010.6 |
| 20260508153004 | 59 | 259 | 4.0 | 11.0 | 0.00 | 0.04 | 0.04 | 64 | 1010.6 |
| 20260508152005 | 58 | 281 | 2.0 | 6.0 | 0.00 | 0.04 | 0.04 | 67 | 1010.8 |
| 20260508151004 | 58 | 278 | 3.0 | 10.0 | 0.00 | 0.04 | 0.04 | 65 | 1010.8 |
| 20260508150504 | 58 | 285 | 3.0 | 10.0 | 0.00 | 0.04 | 0.04 | 66 | 1010.8 |
| 20260508150005 | 58 | 242 | 2.0 | 9.0 | 0.00 | 0.04 | 0.04 | 66 | 1010.8 |
| 20260508145504 | 58 | 246 | 3.0 | 9.0 | 0.00 | 0.04 | 0.04 | 66 | 1010.8 |
| 20260508145004 | 57 | 288 | 4.0 | 9.0 | 0.00 | 0.04 | 0.04 | 65 | 1010.8 |
| 20260508144504 | 57 | 264 | 4.0 | 10.0 | 0.00 | 0.04 | 0.04 | 67 | 1010.8 |
| 20260508143504 | 56 | 262 | 2.0 | 9.0 | 0.00 | 0.04 | 0.04 | 68 | 1010.9 |
| 20260508143005 | 56 | 290 | 3.0 | 10.0 | 0.00 | 0.04 | 0.04 | 69 | 1010.9 |
| 20260508142504 | 56 | 277 | 3.0 | 10.0 | 0.00 | 0.04 | 0.04 | 69 | 1010.9 |
| 20260508142005 | 55 | 277 | 2.0 | 5.0 | 0.00 | 0.04 | 0.04 | 70 | 1010.9 |
| 20260508141504 | 55 | 282 | 2.0 | 5.0 | 0.00 | 0.04 | 0.04 | 70 | 1011.0 |
| 20260508135005 | 54 | 279 | 3.0 | 7.0 | 0.00 | 0.04 | 0.04 | 72 | 1011.2 |
| 20260508134504 | 53 | 302 | 3.0 | 8.0 | 0.00 | 0.04 | 0.04 | 72 | 1011.1 |
| 20260508133504 | 53 | 258 | 2.0 | 10.0 | 0.00 | 0.04 | 0.04 | 73 | 1011.1 |
| 20260508132504 | 52 | 248 | 2.0 | 6.0 | 0.00 | 0.04 | 0.04 | 74 | 1011.2 |
| 20260508132005 | 52 | 256 | 3.0 | 6.0 | 0.00 | 0.04 | 0.04 | 74 | 1011.2 |
| 20260508131504 | 52 | 271 | 3.0 | 7.0 | 0.00 | 0.04 | 0.04 | 75 | 1011.2 |
| 20260508131005 | 51 | 258 | 3.0 | 7.0 | 0.00 | 0.04 | 0.04 | 74 | 1011.3 |
| 20260508130504 | 51 | 247 | 3.0 | 7.0 | 0.00 | 0.04 | 0.04 | 74 | 1011.2 |
| 20260508130005 | 51 | 240 | 3.0 | 10.0 | 0.00 | 0.04 | 0.04 | 74 | 1011.3 |
| 20260508125504 | 51 | 233 | 3.0 | 13.0 | 0.00 | 0.04 | 0.04 | 74 | 1011.2 |
| 20260508125005 | 50 | 228 | 3.0 | 13.0 | 0.00 | 0.04 | 0.04 | 77 | 1011.3 |
| 20260508124504 | 50 | 227 | 3.0 | 8.0 | 0.00 | 0.04 | 0.04 | 78 | 1011.2 |
| 20260508123504 | 49 | 235 | 2.0 | 8.0 | 0.00 | 0.04 | 0.04 | 81 | 1011.2 |
| 20260508123004 | 49 | 239 | 1.0 | 8.0 | 0.00 | 0.04 | 0.04 | 81 | 1011.2 |
| 20260508122503 | 49 | 239 | 2.0 | 8.0 | 0.00 | 0.04 | 0.04 | 82 | 1011.1 |
| 20260508122005 | 48 | 242 | 2.0 | 8.0 | 0.00 | 0.04 | 0.04 | 83 | 1011.1 |
| 20260508121504 | 48 | 242 | 2.0 | 6.0 | 0.00 | 0.04 | 0.04 | 83 | 1011.0 |
| 20260508121004 | 48 | 224 | 3.0 | 6.0 | 0.00 | 0.04 | 0.04 | 84 | 1010.8 |
| 20260508120504 | 48 | 206 | 2.0 | 6.0 | 0.00 | 0.04 | 0.04 | 84 | 1010.7 |
| 20260508120005 | 48 | 217 | 1.0 | 6.0 | 0.00 | 0.04 | 0.04 | 84 | 1010.7 |
| 20260508115504 | 48 | 228 | 1.0 | 5.0 | 0.00 | 0.04 | 0.04 | 84 | 1010.7 |
| 20260508115004 | 47 | 234 | 1.0 | 4.0 | 0.00 | 0.04 | 0.04 | 84 | 1010.8 |
| 20260508114506 | 47 | 235 | 1.0 | 4.0 | 0.00 | 0.04 | 0.04 | 84 | 1010.8 |
| 20260508114004 | 47 | 237 | 0.0 | 4.0 | 0.01 | 0.04 | 0.04 | 84 | 1010.7 |
| 20260508113504 | 47 | 0 | 0.0 | 0.0 | 0.01 | 0.04 | 0.04 | 83 | 1010.6 |
| 20260508113005 | 47 | 0 | 0.0 | 0.0 | 0.01 | 0.04 | 0.04 | 83 | 1010.5 |
| 20260508112503 | 47 | 242 | 0.0 | 3.0 | 0.03 | 0.04 | 0.04 | 83 | 1010.6 |
| 20260508111504 | 47 | 241 | 0.0 | 2.0 | 0.03 | 0.04 | 0.04 | 83 | 1010.6 |
| 20260508111004 | 47 | 241 | 0.0 | 2.0 | 0.03 | 0.04 | 0.04 | 82 | 1010.6 |
| 20260508110504 | 47 | 241 | 0.0 | 2.0 | 0.03 | 0.04 | 0.04 | 82 | 1010.5 |
| 20260508110004 | 47 | 232 | 1.0 | 4.0 | 0.03 | 0.04 | 0.04 | 82 | 1010.4 |
| 20260508105504 | 47 | 225 | 1.0 | 4.0 | 0.03 | 0.04 | 0.04 | 82 | 1010.4 |
| 20260508105004 | 47 | 218 | 2.0 | 6.0 | 0.03 | 0.04 | 0.04 | 82 | 1010.5 |
| 20260508104504 | 47 | 232 | 2.0 | 13.0 | 0.03 | 0.04 | 0.04 | 82 | 1010.2 |
| 20260508104004 | 47 | 266 | 1.0 | 13.0 | 0.02 | 0.03 | 0.03 | 82 | 1010.7 |
| 20260508103504 | 47 | 265 | 1.0 | 4.0 | 0.02 | 0.03 | 0.03 | 81 | 1010.9 |
| 20260508103004 | 47 | 236 | 2.0 | 4.0 | 0.01 | 0.02 | 0.02 | 81 | 1010.9 |
| 20260508102504 | 47 | 230 | 2.0 | 4.0 | 0.00 | 0.01 | 0.01 | 81 | 1010.4 |
| 20260508102004 | 46 | 228 | 1.0 | 4.0 | 0.00 | 0.01 | 0.01 | 81 | 1010.3 |
| 20260508101504 | 46 | 227 | 1.0 | 4.0 | 0.00 | 0.01 | 0.01 | 81 | 1010.3 |
| 20260508101004 | 46 | 246 | 2.0 | 3.0 | 0.00 | 0.01 | 0.01 | 81 | 1010.4 |
| 20260508100504 | 46 | 251 | 3.0 | 13.0 | 0.00 | 0.01 | 0.01 | 81 | 1010.3 |
| 20260508100005 | 46 | 234 | 4.0 | 13.0 | 0.00 | 0.01 | 0.01 | 81 | 1010.2 |
| 20260508095504 | 46 | 251 | 3.0 | 8.0 | 0.00 | 0.01 | 0.01 | 82 | 1010.2 |
| 20260508095004 | 46 | 286 | 1.0 | 4.0 | 0.00 | 0.01 | 0.01 | 81 | 1010.7 |
| 20260508094504 | 46 | 262 | 1.0 | 4.0 | 0.00 | 0.01 | 0.01 | 81 | 1010.5 |
| 20260508094004 | 46 | 218 | 0.0 | 3.0 | 0.00 | 0.01 | 0.01 | 81 | 1010.5 |
| 20260508093504 | 45 | 239 | 1.0 | 3.0 | 0.00 | 0.01 | 0.01 | 81 | 1010.5 |
| 20260508093004 | 45 | 241 | 2.0 | 3.0 | 0.00 | 0.01 | 0.01 | 80 | 1010.5 |
| 20260508092004 | 46 | 236 | 2.0 | 4.0 | 0.00 | 0.01 | 0.01 | 81 | 1010.7 |
| 20260508091503 | 46 | 236 | 2.0 | 7.0 | 0.00 | 0.01 | 0.01 | 81 | 1010.8 |
| 20260508091006 | 46 | 239 | 1.0 | 7.0 | 0.00 | 0.01 | 0.01 | 80 | 1010.8 |
| 20260508090504 | 46 | 237 | 1.0 | 3.0 | 0.00 | 0.01 | 0.01 | 80 | 1010.8 |
| 20260508090004 | 46 | 234 | 2.0 | 4.0 | 0.00 | 0.01 | 0.01 | 80 | 1010.8 |
| 20260508085504 | 46 | 234 | 2.0 | 4.0 | 0.00 | 0.01 | 0.01 | 80 | 1010.8 |
| 20260508085005 | 46 | 231 | 1.0 | 4.0 | 0.00 | 0.01 | 0.01 | 80 | 1010.8 |
| 20260508084504 | 46 | 223 | 1.0 | 3.0 | 0.00 | 0.01 | 0.01 | 80 | 1010.8 |
| 20260508084004 | 46 | 223 | 1.0 | 3.0 | 0.00 | 0.01 | 0.01 | 80 | 1010.7 |
| 20260508083504 | 46 | 222 | 1.0 | 3.0 | 0.00 | 0.01 | 0.01 | 80 | 1010.8 |
| 20260508083004 | 46 | 222 | 2.0 | 4.0 | 0.00 | 0.01 | 0.01 | 80 | 1010.7 |
| 20260508082004 | 46 | 225 | 0.0 | 4.0 | 0.00 | 0.01 | 0.01 | 79 | 1010.9 |
| 20260508081504 | 46 | 243 | 1.0 | 5.0 | 0.00 | 0.01 | 0.01 | 79 | 1010.9 |
| 20260508081004 | 47 | 241 | 2.0 | 5.0 | 0.00 | 0.01 | 0.01 | 79 | 1010.9 |
| 20260508080504 | 47 | 236 | 1.0 | 5.0 | 0.01 | 0.01 | 0.01 | 79 | 1010.8 |
| 20260508080004 | 47 | 250 | 1.0 | 3.0 | 0.01 | 0.01 | 0.01 | 79 | 1010.8 |
| 20260508075004 | 47 | 242 | 2.0 | 4.0 | 0.01 | 0.01 | 0.01 | 79 | 1010.9 |
| 20260508074005 | 48 | 245 | 2.0 | 4.0 | 0.01 | 0.01 | 0.01 | 78 | 1010.9 |
| 20260508073503 | 48 | 238 | 3.0 | 5.0 | 0.01 | 0.01 | 0.01 | 78 | 1011.0 |
| 20260508073005 | 48 | 238 | 3.0 | 7.0 | 0.01 | 0.01 | 0.01 | 77 | 1011.0 |
| 20260508072005 | 48 | 243 | 3.0 | 8.0 | 0.01 | 0.01 | 0.01 | 76 | 1010.9 |
| 20260508071503 | 48 | 240 | 3.0 | 8.0 | 0.01 | 0.01 | 0.01 | 74 | 1011.0 |
| 20260508070503 | 48 | 232 | 5.0 | 13.0 | 0.00 | 0.00 | 0.00 | 71 | 1011.1 |
| 20260508065504 | 48 | 230 | 3.0 | 9.0 | 0.00 | 0.00 | 0.00 | 70 | 1011.0 |
| 20260508065005 | 47 | 234 | 2.0 | 8.0 | 0.00 | 0.00 | 0.00 | 70 | 1011.0 |
| 20260508064504 | 47 | 228 | 2.0 | 6.0 | 0.00 | 0.00 | 0.00 | 70 | 1011.1 |
| 20260508064005 | 47 | 225 | 2.0 | 6.0 | 0.00 | 0.00 | 0.00 | 70 | 1011.0 |
| 20260508063504 | 47 | 228 | 2.0 | 4.0 | 0.00 | 0.00 | 0.00 | 70 | 1011.1 |
| 20260508063005 | 47 | 240 | 1.0 | 4.0 | 0.00 | 0.00 | 0.00 | 70 | 1011.1 |
| 20260508062504 | 47 | 240 | 1.0 | 4.0 | 0.00 | 0.00 | 0.00 | 70 | 1011.2 |
| 20260508062004 | 47 | 0 | 0.0 | 0.0 | 0.00 | 0.00 | 0.00 | 70 | 1011.0 |
| 20260508061504 | 47 | 240 | 0.0 | 1.0 | 0.00 | 0.00 | 0.00 | 70 | 1011.1 |
| 20260508061004 | 47 | 239 | 0.0 | 2.0 | 0.00 | 0.00 | 0.00 | 70 | 1011.2 |
| 20260508060005 | 47 | 0 | 0.0 | 0.0 | 0.00 | 0.00 | 0.00 | 69 | 1011.2 |
| 20260508055504 | 47 | 0 | 0.0 | 0.0 | 0.00 | 0.00 | 0.00 | 69 | 1011.2 |
| 20260508055005 | 47 | 0 | 0.0 | 0.0 | 0.00 | 0.00 | 0.00 | 69 | 1011.2 |
| 20260508054503 | 48 | 0 | 0.0 | 0.0 | 0.00 | 0.00 | 0.00 | 69 | 1011.3 |
| 20260508054005 | 48 | 0 | 0.0 | 0.0 | 0.00 | 0.00 | 0.00 | 69 | 1011.4 |
| 20260508053503 | 48 | 0 | 0.0 | 0.0 | 0.00 | 0.00 | 0.00 | 68 | 1011.5 |
| 20260508053005 | 48 | 0 | 0.0 | 0.0 | 0.00 | 0.00 | 0.00 | 68 | 1011.5 |
| 20260508052503 | 48 | 0 | 0.0 | 0.0 | 0.00 | 0.00 | 0.00 | 68 | 1011.6 |
| 20260508052004 | 48 | 0 | 0.0 | 0.0 | 0.00 | 0.00 | 0.00 | 68 | 1011.6 |
| 20260508051504 | 48 | 0 | 0.0 | 0.0 | 0.00 | 0.00 | 0.00 | 68 | 1011.5 |
| 20260508051004 | 48 | 0 | 0.0 | 0.0 | 0.00 | 0.00 | 0.00 | 68 | 1011.7 |
| 20260508050504 | 48 | 0 | 0.0 | 0.0 | 0.00 | 0.00 | 0.00 | 67 | 1011.7 |
| 20260508050004 | 48 | 0 | 0.0 | 0.0 | 0.00 | 0.00 | 0.00 | 67 | 1011.8 |
| 20260508045504 | 48 | 0 | 0.0 | 0.0 | 0.00 | 0.00 | 0.00 | 67 | 1011.7 |
| 20260508045004 | 48 | 0 | 0.0 | 0.0 | 0.00 | 0.00 | 0.00 | 67 | 1011.7 |
| 20260508044504 | 48 | 0 | 0.0 | 0.0 | 0.00 | 0.00 | 0.00 | 67 | 1011.6 |
| 20260508044004 | 48 | 239 | 0.0 | 1.0 | 0.00 | 0.00 | 0.00 | 67 | 1011.6 |
| 20260508043504 | 48 | 239 | 1.0 | 3.0 | 0.00 | 0.00 | 0.00 | 67 | 1011.6 |
| 20260508043005 | 48 | 238 | 2.0 | 4.0 | 0.00 | 0.00 | 0.00 | 67 | 1011.7 |
| 20260508042503 | 48 | 237 | 1.0 | 4.0 | 0.00 | 0.00 | 0.00 | 67 | 1011.7 |
| 20260508042005 | 47 | 231 | 2.0 | 4.0 | 0.00 | 0.00 | 0.00 | 67 | 1011.7 |
| 20260508041504 | 47 | 228 | 3.0 | 4.0 | 0.00 | 0.00 | 0.00 | 67 | 1011.7 |
| 20260508040504 | 47 | 233 | 2.0 | 5.0 | 0.00 | 0.00 | 0.00 | 68 | 1011.8 |
| 20260508040008 | 46 | 234 | 2.0 | 4.0 | 0.00 | 0.00 | 0.00 | 68 | 1011.8 |
| 20260508035503 | 46 | 230 | 2.0 | 5.0 | 0.00 | 0.00 | 0.00 | 68 | 1011.8 |
| 20260508035005 | 46 | 235 | 3.0 | 5.0 | 0.00 | 0.00 | 0.00 | 69 | 1011.9 |
| 20260508034504 | 45 | 253 | 2.0 | 6.0 | 0.00 | 0.00 | 0.00 | 70 | 1011.9 |
| 20260508033504 | 45 | 257 | 1.0 | 4.0 | 0.00 | 0.00 | 0.00 | 70 | 1011.9 |
| 20260508033004 | 45 | 285 | 1.0 | 4.0 | 0.00 | 0.00 | 0.00 | 70 | 1011.8 |
| 20260508032504 | 45 | 305 | 0.0 | 2.0 | 0.00 | 0.00 | 0.00 | 69 | 1011.9 |
| 20260508032004 | 45 | 0 | 0.0 | 0.0 | 0.00 | 0.00 | 0.00 | 68 | 1011.8 |
| 20260508031504 | 45 | 0 | 0.0 | 0.0 | 0.00 | 0.00 | 0.00 | 68 | 1011.8 |
| 20260508031004 | 46 | 0 | 0.0 | 0.0 | 0.00 | 0.00 | 0.00 | 68 | 1011.8 |
| 20260508025504 | 46 | 321 | 0.0 | 1.0 | 0.00 | 0.00 | 0.00 | 68 | 1011.8 |
| 20260508025004 | 46 | 0 | 0.0 | 0.0 | 0.00 | 0.00 | 0.00 | 68 | 1011.8 |
| 20260508024504 | 46 | 0 | 0.0 | 0.0 | 0.00 | 0.00 | 0.00 | 68 | 1011.8 |
| 20260508024004 | 46 | 0 | 0.0 | 0.0 | 0.00 | 0.00 | 0.00 | 67 | 1011.8 |
| 20260508023503 | 46 | 0 | 0.0 | 0.0 | 0.00 | 0.00 | 0.00 | 67 | 1011.6 |
| 20260508022504 | 47 | 0 | 0.0 | 0.0 | 0.00 | 0.00 | 0.00 | 67 | 1011.6 |
| 20260508022004 | 47 | 0 | 0.0 | 0.0 | 0.00 | 0.00 | 0.00 | 67 | 1011.5 |
| 20260508021504 | 47 | 0 | 0.0 | 0.0 | 0.00 | 0.00 | 0.00 | 66 | 1011.6 |
| 20260508021004 | 47 | 0 | 0.0 | 0.0 | 0.00 | 0.00 | 0.00 | 65 | 1011.6 |
| 20260508015004 | 48 | 0 | 0.0 | 0.0 | 0.00 | 0.00 | 0.00 | 63 | 1011.5 |
| 20260508014504 | 48 | 0 | 0.0 | 0.0 | 0.00 | 0.00 | 0.00 | 62 | 1011.5 |
| 20260508014004 | 48 | 0 | 0.0 | 0.0 | 0.00 | 0.00 | 0.00 | 62 | 1011.5 |
| 20260508013504 | 49 | 0 | 0.0 | 0.0 | 0.00 | 0.00 | 0.00 | 61 | 1011.4 |
| 20260508013005 | 49 | 0 | 0.0 | 0.0 | 0.00 | 0.00 | 0.00 | 60 | 1011.4 |
| 20260508012004 | 50 | 0 | 0.0 | 0.0 | 0.00 | 0.00 | 0.00 | 57 | 1011.4 |
| 20260508011504 | 50 | 0 | 0.0 | 0.0 | 0.00 | 0.00 | 0.00 | 57 | 1011.3 |
| 20260508011004 | 50 | 0 | 0.0 | 0.0 | 0.00 | 0.00 | 0.00 | 56 | 1011.2 |
| 20260508010504 | 51 | 0 | 0.0 | 0.0 | 0.00 | 0.00 | 0.00 | 54 | 1011.2 |
| 20260508010004 | 51 | 0 | 0.0 | 0.0 | 0.00 | 0.00 | 0.00 | 53 | 1011.2 |
| 20260508005504 | 51 | 0 | 0.0 | 0.0 | 0.00 | 0.00 | 0.00 | 52 | 1011.2 |
| 20260508005004 | 52 | 0 | 0.0 | 0.0 | 0.00 | 0.00 | 0.00 | 50 | 1011.2 |
| 20260508004504 | 52 | 321 | 0.0 | 1.0 | 0.00 | 0.00 | 0.00 | 51 | 1011.2 |
| 20260508004004 | 52 | 321 | 0.0 | 4.0 | 0.00 | 0.00 | 0.00 | 50 | 1011.2 |
| 20260508003503 | 52 | 321 | 1.0 | 4.0 | 0.00 | 0.00 | 0.00 | 49 | 1011.0 |
| 20260508003005 | 52 | 319 | 1.0 | 5.0 | 0.00 | 0.00 | 0.00 | 48 | 1011.0 |
| 20260508002503 | 52 | 313 | 2.0 | 8.0 | 0.00 | 0.00 | 0.00 | 48 | 1011.0 |
| 20260508002005 | 53 | 316 | 2.0 | 8.0 | 0.00 | 0.00 | 0.00 | 47 | 1011.0 |
| 20260508001503 | 53 | 319 | 2.0 | 6.0 | 0.00 | 0.00 | 0.00 | 47 | 1011.0 |
| 20260508001005 | 53 | 288 | 2.0 | 6.0 | 0.00 | 0.00 | 0.00 | 47 | 1010.9 |
| 20260508000503 | 53 | 279 | 2.0 | 5.0 | 0.00 | 0.00 | 0.00 | 47 | 1010.8 |
| 20260508000005 | 53 | 298 | 3.0 | 5.0 | 0.00 | 0.00 | 0.00 | 47 | 1010.8 |
| 20260507235504 | 53 | 302 | 3.0 | 9.0 | 0.00 | 0.00 | 0.00 | 46 | 1010.7 |
| 20260507235005 | 53 | 307 | 4.0 | 11.0 | 0.00 | 0.00 | 0.00 | 45 | 1010.7 |
| 20260507234504 | 54 | 309 | 5.0 | 11.0 | 0.00 | 0.00 | 0.00 | 45 | 1010.7 |
| 20260507234004 | 54 | 306 | 5.0 | 11.0 | 0.00 | 0.00 | 0.00 | 45 | 1010.7 |
| 20260507233504 | 54 | 306 | 5.0 | 14.0 | 0.00 | 0.00 | 0.00 | 46 | 1010.6 |
| 20260507232504 | 54 | 311 | 4.0 | 11.0 | 0.00 | 0.00 | 0.00 | 46 | 1010.6 |
| 20260507231504 | 54 | 317 | 4.0 | 10.0 | 0.00 | 0.00 | 0.00 | 45 | 1010.6 |
| 20260507231004 | 54 | 305 | 3.0 | 13.0 | 0.00 | 0.00 | 0.00 | 46 | 1010.6 |
| 20260507230006 | 55 | 294 | 3.0 | 9.0 | 0.00 | 0.00 | 0.00 | 46 | 1010.7 |
| 20260507225503 | 55 | 304 | 4.0 | 9.0 | 0.00 | 0.00 | 0.00 | 47 | 1010.8 |
| 20260507225005 | 55 | 312 | 5.0 | 16.0 | 0.00 | 0.00 | 0.00 | 46 | 1010.8 |
| 20260507224504 | 55 | 310 | 5.0 | 16.0 | 0.00 | 0.00 | 0.00 | 46 | 1010.7 |
| 20260507224005 | 55 | 307 | 4.0 | 10.0 | 0.00 | 0.00 | 0.00 | 47 | 1010.6 |
| 20260507223503 | 55 | 301 | 3.0 | 7.0 | 0.00 | 0.00 | 0.00 | 48 | 1010.6 |
| 20260507223005 | 55 | 302 | 4.0 | 13.0 | 0.00 | 0.00 | 0.00 | 47 | 1010.7 |
| 20260507222503 | 55 | 307 | 5.0 | 13.0 | 0.00 | 0.00 | 0.00 | 46 | 1010.7 |
| 20260507222004 | 55 | 305 | 5.0 | 12.0 | 0.00 | 0.00 | 0.00 | 48 | 1010.7 |
| 20260507221504 | 55 | 317 | 5.0 | 12.0 | 0.00 | 0.00 | 0.00 | 48 | 1010.7 |
| 20260507220504 | 55 | 304 | 4.0 | 10.0 | 0.00 | 0.00 | 0.00 | 49 | 1010.7 |
| 20260507220004 | 56 | 306 | 4.0 | 11.0 | 0.00 | 0.00 | 0.00 | 49 | 1010.6 |
| 20260507215504 | 56 | 311 | 4.0 | 11.0 | 0.00 | 0.00 | 0.00 | 49 | 1010.6 |
| 20260507215004 | 56 | 309 | 5.0 | 17.0 | 0.00 | 0.00 | 0.00 | 50 | 1010.6 |
| 20260507214504 | 56 | 307 | 6.0 | 18.0 | 0.00 | 0.00 | 0.00 | 50 | 1010.6 |
| 20260507214004 | 56 | 313 | 5.0 | 18.0 | 0.00 | 0.00 | 0.00 | 49 | 1010.6 |
| 20260507212005 | 56 | 304 | 6.0 | 12.0 | 0.00 | 0.00 | 0.00 | 45 | 1010.2 |
| 20260507211005 | 57 | 313 | 5.0 | 12.0 | 0.00 | 0.00 | 0.00 | 45 | 1010.0 |
| 20260507210504 | 57 | 314 | 6.0 | 14.0 | 0.00 | 0.00 | 0.00 | 47 | 1010.0 |
| 20260507210005 | 57 | 301 | 5.0 | 14.0 | 0.00 | 0.00 | 0.00 | 44 | 1010.0 |
| 20260507205504 | 57 | 281 | 4.0 | 11.0 | 0.00 | 0.00 | 0.00 | 46 | 1010.0 |
| 20260507204504 | 58 | 304 | 4.0 | 13.0 | 0.00 | 0.00 | 0.00 | 44 | 1009.9 |
| 20260507204004 | 58 | 295 | 4.0 | 13.0 | 0.00 | 0.00 | 0.00 | 45 | 1009.9 |
| 20260507203504 | 58 | 291 | 4.0 | 11.0 | 0.00 | 0.00 | 0.00 | 46 | 1009.8 |
| 20260507203004 | 58 | 302 | 4.0 | 12.0 | 0.00 | 0.00 | 0.00 | 45 | 1009.8 |
| 20260507202503 | 58 | 307 | 4.0 | 12.0 | 0.00 | 0.00 | 0.00 | 44 | 1009.8 |
| 20260507202005 | 59 | 301 | 4.0 | 10.0 | 0.00 | 0.00 | 0.00 | 46 | 1009.7 |
| 20260507201503 | 59 | 305 | 5.0 | 14.0 | 0.00 | 0.00 | 0.00 | 43 | 1009.9 |
| 20260507201004 | 59 | 310 | 5.0 | 14.0 | 0.00 | 0.00 | 0.00 | 44 | 1009.8 |
| 20260507200504 | 59 | 314 | 4.0 | 9.0 | 0.00 | 0.00 | 0.00 | 46 | 1009.8 |
| 20260507195504 | 60 | 316 | 6.0 | 16.0 | 0.00 | 0.00 | 0.00 | 45 | 1009.8 |
| 20260507195004 | 60 | 303 | 5.0 | 16.0 | 0.00 | 0.00 | 0.00 | 42 | 1009.8 |
| 20260507193503 | 61 | 308 | 3.0 | 9.0 | 0.00 | 0.00 | 0.00 | 46 | 1010.0 |
| 20260507193005 | 61 | 274 | 4.0 | 9.0 | 0.00 | 0.00 | 0.00 | 42 | 1010.1 |
| 20260507192503 | 61 | 283 | 4.0 | 10.0 | 0.00 | 0.00 | 0.00 | 40 | 1010.0 |
| 20260507191503 | 62 | 310 | 5.0 | 12.0 | 0.00 | 0.00 | 0.00 | 42 | 1010.1 |
| 20260507191004 | 62 | 313 | 5.0 | 12.0 | 0.00 | 0.00 | 0.00 | 44 | 1010.1 |
| 20260507190005 | 61 | 249 | 4.0 | 8.0 | 0.00 | 0.00 | 0.00 | 45 | 1010.2 |
| 20260507185504 | 61 | 233 | 4.0 | 9.0 | 0.00 | 0.00 | 0.00 | 48 | 1010.1 |
| 20260507185004 | 60 | 258 | 5.0 | 13.0 | 0.00 | 0.00 | 0.00 | 43 | 1010.1 |
| 20260507184504 | 60 | 282 | 5.0 | 14.0 | 0.00 | 0.00 | 0.00 | 45 | 1010.2 |
| 20260507183504 | 60 | 245 | 4.0 | 12.0 | 0.00 | 0.00 | 0.00 | 39 | 1010.2 |
| 20260507183004 | 61 | 233 | 4.0 | 12.0 | 0.00 | 0.00 | 0.00 | 41 | 1010.3 |
| 20260507182504 | 61 | 228 | 4.0 | 10.0 | 0.00 | 0.00 | 0.00 | 40 | 1010.1 |
| 20260507182004 | 61 | 242 | 4.0 | 10.0 | 0.00 | 0.00 | 0.00 | 40 | 1010.2 |
| 20260507181504 | 61 | 267 | 4.0 | 8.0 | 0.00 | 0.00 | 0.00 | 42 | 1010.2 |
| 20260507181004 | 61 | 269 | 4.0 | 8.0 | 0.00 | 0.00 | 0.00 | 41 | 1010.2 |
| 20260507180504 | 62 | 257 | 4.0 | 8.0 | 0.00 | 0.00 | 0.00 | 42 | 1010.2 |
| 20260507180005 | 62 | 255 | 4.0 | 11.0 | 0.00 | 0.00 | 0.00 | 41 | 1010.2 |
| 20260507175504 | 62 | 257 | 4.0 | 11.0 | 0.00 | 0.00 | 0.00 | 43 | 1010.4 |